• MPC Preparation (Info)

  • MPEC 2023-M43 : 2023 ML

    The following Minor Planet Electronic Circular may be linked-to from your own Web pages, but must not otherwise be redistributed electronically.

    A form allowing access to any MPEC is at the bottom of this page.


    Read MPEC 2023-M42 Read MPEC 2023-M44


    M.P.E.C. 2023-M43                                 Issued 2023 June 19, 02:06 UT
    
         The Minor Planet Electronic Circulars contain information on unusual
             minor planets, routine data on comets and natural satellites,
             and occasional editorial announcements.  They are published
        on behalf of Division F of the International Astronomical Union by the
              Minor Planet Center, Smithsonian Astrophysical Observatory,
                              Cambridge, MA 02138, U.S.A.
    			  
                 Prepared using the Tamkin Foundation Computer Network
    
                                  MPC@CFA.HARVARD.EDU
                URL https://www.minorplanetcenter.net/    ISSN 1523-6714
    
                                     2023 ML                                 
    
    
    Observations:
         K23M00L*1C2023 06 17.29362115 56 57.851+32 15 49.75         21.04GVEM043G96
         K23M00L 1C2023 06 17.30500315 56 52.516+32 15 20.52         21.32GVEM043G96
         K23M00L 1C2023 06 17.31067915 56 49.859+32 15 05.47         21.33GVEM043G96
         K23M00L  C2023 06 17.36735715 56 23.383+32 12 34.50         20.7 GVEM043H01
         K23M00L  C2023 06 17.37138815 56 21.552+32 12 23.80         21.1 GVEM043H01
         K23M00L  C2023 06 17.38181115 56 16.754+32 11 56.03         20.9 GVEM043H01
         K23M00L KC2023 06 17.38728815 56 14.338+32 11 44.38         21.23GVEM043I52
         K23M00L  C2023 06 17.38791315 56 13.973+32 11 39.76         21.1 GVEM043H01
         K23M00L KC2023 06 17.39038015 56 12.923+32 11 35.70         20.88GVEM043I52
         K23M00L KC2023 06 17.39347015 56 11.476+32 11 27.46         20.93GVEM043I52
         K23M00L KC2023 06 18.15091715 50 43.45 +31 39 03.9          20.9 VuEM043H21
         K23M00L KC2023 06 18.15651515 50 40.95 +31 38 49.5          21.0 VuEM043H21
         K23M00L KC2023 06 18.17924815 50 32.132+31 37 56.10         20.97GVEM043I52
         K23M00L KC2023 06 18.18105015 50 31.290+31 37 51.28         20.51GVEM043I52
         K23M00L KC2023 06 18.18285115 50 30.505+31 37 46.67         20.81GVEM043I52
         K23M00L KC2023 06 18.18465415 50 29.674+31 37 42.10         21.00GVEM043I52
         K23M00L KC2023 06 19.04363515 44 21.710+30 59 05.64         21.0 GVEM043J95
         K23M00L KC2023 06 19.06035115 44 14.594+30 58 18.12         20.3 GVEM043J95
    
    Observer details:
    G96 Mt. Lemmon Survey.  Observer R. A. Kowalski.  Measurers E. J. Christensen,
        D. Fay, J. B. Fazekas, D. C. Fuls, A. R. Gibbs, A. D. Grauer, H. Groeller,
        J. K. Hogan, R. A. Kowalski, S. M. Larson, G. J. Leonard, D. Rankin, R. L.
        Seaman, A. Serrano, F. C. Shelly, K. W. Wierzchos.  1.5-m reflector + 10K
        CCD.
    H01 Magdalena Ridge Observatory, Socorro.  Observers W. H. Ryan, E. V. Ryan.
        Measurer W. H. Ryan.  2.4-m f/8.9 Ritchey-Chretien + CCD.
    H21 Astronomical Research Observatory, Westfield.  Observer R. Holmes.
        Measurers T. Linder, R. Holmes, L. Horn.  0.76-m f/3.0 astrograph + CCD.
    I52 Steward Observatory, Mt. Lemmon Station.  Observers H. Groeller, G. J.
        Leonard.  Measurers E. J. Christensen, D. Fay, J. B. Fazekas, D. C. Fuls,
        A. R. Gibbs, A. D. Grauer, H. Groeller, J. K. Hogan, R. A. Kowalski, S. M.
        Larson, G. J. Leonard, D. Rankin, R. L. Seaman, A. Serrano, F. C. Shelly,
        K. W. Wierzchos.  1.0-m prime focus + CCD.
    J95 Great Shefford.  Observer P. Birtwhistle.  0.41-m f/6.3 Schmidt-Cassegrain
        + CCD.
    
    Orbital elements:
    2023 ML                                                  Earth MOID = 0.0556 AU
    Epoch 2023 Feb. 25.0 TT = JDT 2460000.5                 MPC                     
    M  25.40117              (2000.0)            P               Q                  
    n   1.43391100     Peri.  306.15523     +0.18032692     -0.97880411             
    a   0.7788514      Node   133.15067     +0.93977954     +0.14231699             
    e   0.4056077      Incl.    7.64693     +0.29033878     +0.14726981             
    P   0.69           H   23.22          G   0.15           U   9                  
    Residuals in seconds of arc
    230617 G96  0.0   0.0     230617 I52  0.1+  0.2+    230618 I52  0.0   0.2+
    230617 G96  0.0   0.1+    230617 H01  0.1+  0.1+    230618 I52  0.2-  0.0
    230617 G96  0.0   0.2-    230617 I52  0.1+  0.2-    230618 I52  0.2+  0.0
    230617 H01  0.1-  0.1+    230617 I52  0.3-  0.2-    230618 I52  0.1+  0.0
    230617 H01  0.2+  0.1+    230618 H21  0.4-  0.4-    230619 J95  0.5-  0.3+
    230617 H01  0.0   0.1+    230618 H21  0.2+  0.2-    230619 J95  0.4+  0.3-
    
    Ephemeris:
    2023 ML                  a,e,i = 0.78, 0.41, 8                   q = 0.4629
    Date    TT    R. A. (2000) Decl.     Delta      r    Elong.  Phase     V
    2023 05 20    19 32 57.3 +32 08 49   0.1670  1.0663   104.7    66.6    21.8
    ...
    2023 06 04    17 49 08.7 +37 03 38   0.1440  1.0909   118.7    54.6    21.2
    ...
    2023 06 12    16 39 26.7 +35 21 05   0.1417  1.0947   120.8    52.8    21.1
    ...
    2023 06 18    15 51 48.9 +31 45 48   0.1456  1.0934   118.7    54.6    21.2
    2023 06 19    15 44 42.4 +31 01 32   0.1467  1.0928   118.1    55.1    21.2
    2023 06 20    15 37 52.1 +30 15 34   0.1479  1.0922   117.4    55.7    21.3
    ...
    2023 06 26    15 02 34.2 +25 17 58   0.1574  1.0860   112.3    60.0    21.5
    ...
    2023 07 04    14 29 02.8 +18 35 43   0.1744  1.0722   104.0    66.9    21.9
    ...
    2023 07 19    13 52 22.0 +07 56 04   0.2110  1.0288    87.5    80.7    22.7
    
    A. U. Tomatic                (C) Copyright 2023 MPC           M.P.E.C. 2023-M43
    


    Read MPEC 2023-M42 Read MPEC 2023-M44


    MPEC number:

    Enter an MPEC number in one of the following forms:

    • 1997-B01 (the full form)
    • J97B01 (the packed version of the full form)
    • B01 (the abbreviated form)